This is the latest recevied weather packets stored in our database for station/object N1UNH. If no packets are shown the sender has not sent any weather packets the latest 10 day(s).
| Time | Temp. | Humidity | Pressure | Rain* | Wind** | Luminosity | Snow |
|---|---|---|---|---|---|---|---|
| 1777743538 | 8.89° C | 87% | 1016.6 hPa | 6.1 mm | - | 56 W/m² | - |
| 1777743235 | 9.44° C | 84% | 1016.7 hPa | 3.05 mm | - | 65 W/m² | - |
| 1777742934 | 10° C | 77% | 1016.1 hPa | 0 mm | - | 66 W/m² | - |
| 1777742630 | 10.56° C | 75% | 1016.3 hPa | 0 mm | - | 69 W/m² | - |
| 1777742326 | 10.56° C | 77% | 1016.3 hPa | 0 mm | - | 73 W/m² | - |
| 1777742023 | 10.56° C | 71% | 1016.1 hPa | 0 mm | - | 133 W/m² | - |
| 1777741720 | 11.11° C | 73% | 1016.2 hPa | 0 mm | - | 199 W/m² | - |
| 1777741416 | 11.11° C | 75% | 1016.1 hPa | 0 mm | - | 233 W/m² | - |
| 1777741112 | 10.56° C | 77% | 1016.1 hPa | 0 mm | - | 332 W/m² | - |
| 1777740810 | 10.56° C | 77% | 1016.5 hPa | 0 mm | - | 289 W/m² | - |
| 1777740507 | 10° C | 77% | 1016.5 hPa | 0 mm | - | 232 W/m² | - |
| 1777740204 | 10° C | 81% | 1016.4 hPa | 0 mm | - | 268 W/m² | - |
| 1777739900 | 10° C | 79% | 1016.4 hPa | 0 mm | - | 332 W/m² | - |
| 1777739596 | 9.44° C | 83% | 1016.4 hPa | 0 mm | - | 426 W/m² | - |
| 1777739294 | 8.89° C | 84% | 1016.6 hPa | 0 mm | - | 165 W/m² | - |
| 1777738990 | 8.89° C | 83% | 1016.6 hPa | 0 mm | - | 87 W/m² | - |
| 1777738688 | 8.89° C | 86% | 1017 hPa | 0 mm | - | 100 W/m² | - |
| 1777738383 | 9.44° C | 84% | 1016.8 hPa | 0 mm | - | 97 W/m² | - |
| 1777738082 | 9.44° C | 82% | 1016.8 hPa | 0 mm | - | 115 W/m² | - |
| 1777737780 | 9.44° C | 78% | 1016.8 hPa | 0 mm | - | 108 W/m² | - |
| 1777737479 | 10° C | 83% | 1016.8 hPa | 0 mm | - | 109 W/m² | - |
| 1777737176 | 10° C | 81% | 1017 hPa | 0 mm | - | 146 W/m² | - |
| 1777736872 | 9.44° C | 85% | 1017 hPa | 0 mm | - | 199 W/m² | - |
| 1777736264 | 8.89° C | 89% | 1017 hPa | 0 mm | - | 251 W/m² | - |
| 1777735961 | 8.33° C | 88% | 1017.1 hPa | 0 mm | - | 188 W/m² | - |
* Rain latest hour (hover to see other rain measurements)
** Current wind speed in m/s (hover to see current wind gust speed)